Weather History for KAZO - January, 2015

Change the Weather History Date:

Thursday, January 1, 2015

  Actual Average Record
Temperature  
Mean Temperature 23 °F 25 °F  
Max Temperature 30 °F 31 °F 54 °F (2011)
Min Temperature 16 °F 19 °F -7 °F (1968)
Degree Days  
Heating Degree Days 42 40  
Month to date heating degree days 42 40  
Since 1 July heating degree days 2557 2491  
Cooling Degree Days 0 0  
Month to date cooling degree days 0 0  
Year to date cooling degree days 0 0  
Moisture  
Dew Point 12 °F    
Average Humidity 60    
Maximum Humidity 67    
Minimum Humidity 53    
Precipitation  
Precipitation T in 0.07 in 1.73 in (1985)
Month to date precipitation T 0.07  
Year to date precipitation T 0.07  
Sea Level Pressure  
Sea Level Pressure 30.03 in    
Wind  
Wind Speed 15 mph (WSW)    
Max Wind Speed 24 mph    
Max Gust Speed 30 mph    
Visibility 10 miles    
Events Snow    
T = Trace of Precipitation, MM = Missing Value Source: NWS Daily Summary

Daily Weather History Graph

Daily Weather History Graph

Search for Another Location

Airport or City:

Trip Planner

Search our weather history database for the weather conditions in past years. The results will help you decide how hot, cold, wet, or windy it might be!

Date:

Astronomy

Jan. 01, 2015 Rise Set
Actual Time 8:11 AM EST 5:20 PM EST
Civil Twilight 7:39 AM EST 5:52 PM EST
Nautical Twilight 7:04 AM EST 6:27 PM EST
Astronomical Twilight 6:30 AM EST 7:01 PM EST
Moon 2:55 PM EST (1/1) 4:36 AM EST (1/1)
Length of Visible Light 10h 13m
Length of Day
9h 09m
Waxing Gibbous, 88% of the Moon is Illuminated
Jan 1
Waxing Gibbous
Jan 4
Full
Jan 13
Last Quarter
Jan 20
New
Jan 26
First Quarter

Hourly Weather History & Observations

Time (EST) Temp. Windchill Dew Point Humidity Pressure Visibility Wind Dir Wind Speed Gust Speed Precip Events Conditions
12:53 AM 19.9 °F 6.7 °F 7.0 °F 57% 30.12 in 10.0 mi SW 13.8 mph - N/A   Overcast
1:53 AM 19.0 °F 6.8 °F 7.0 °F 59% 30.09 in 10.0 mi SW 11.5 mph - N/A   Overcast
2:53 AM 19.0 °F 7.5 °F 8.1 °F 62% 30.09 in 10.0 mi SW 10.4 mph - N/A   Overcast
3:21 AM 18.0 °F 4.8 °F 7.0 °F 62% 30.03 in 10.0 mi SSW 12.7 mph - N/A   Overcast
3:53 AM 18.0 °F 4.8 °F 7.0 °F 62% 30.07 in 10.0 mi SW 12.7 mph - N/A   Overcast
4:53 AM 18.0 °F 4.8 °F 7.0 °F 62% 30.06 in 10.0 mi SW 12.7 mph - N/A   Overcast
5:53 AM 18.0 °F 2.6 °F 7.0 °F 62% 30.04 in 10.0 mi SW 17.3 mph - N/A   Overcast
6:53 AM 17.6 °F 3.7 °F 8.6 °F 68% 29.98 in 10.0 mi SW 13.8 mph - N/A   Overcast
7:53 AM 17.1 °F 3.0 °F 8.1 °F 68% 30.03 in 10.0 mi SW 13.8 mph 23.0 mph N/A   Mostly Cloudy
8:53 AM 17.1 °F 2.5 °F 7.0 °F 65% 30.03 in 10.0 mi SW 15.0 mph - N/A   Mostly Cloudy
9:53 AM 18.0 °F 4.2 °F 8.1 °F 65% 30.05 in 10.0 mi SW 13.8 mph 24.2 mph N/A   Overcast
10:53 AM 21.9 °F 7.8 °F 10.0 °F 60% 30.02 in 10.0 mi WSW 17.3 mph 26.5 mph N/A   Scattered Clouds
11:53 AM 24.1 °F 10.6 °F 12.0 °F 60% 30.00 in 10.0 mi WSW 17.3 mph 23.0 mph N/A   Mostly Cloudy
12:53 PM 25.0 °F 11.3 °F 14.0 °F 63% 29.98 in 10.0 mi WSW 18.4 mph 25.3 mph N/A   Overcast
1:53 PM 27.0 °F 14.3 °F 12.9 °F 56% 29.97 in 10.0 mi West 17.3 mph 26.5 mph N/A   Mostly Cloudy
2:53 PM 28.0 °F 14.9 °F 14.0 °F 56% 29.97 in 10.0 mi West 19.6 mph 26.5 mph N/A   Overcast
3:02 PM 27.0 °F 14.3 °F 14.0 °F 58% 29.93 in 10.0 mi West 17.3 mph 26.5 mph N/A   Overcast
3:33 PM 28.0 °F 14.6 °F 15.1 °F 58% 29.93 in 10.0 mi WSW 20.7 mph - N/A   Overcast
3:53 PM 28.0 °F 14.9 °F 15.1 °F 58% 29.98 in 8.0 mi WSW 19.6 mph 27.6 mph 0.00 in Snow Light Snow
4:53 PM 28.0 °F 14.3 °F 16.0 °F 61% 29.99 in 10.0 mi WSW 21.9 mph 26.5 mph 0.00 in   Overcast
5:53 PM 28.0 °F 14.9 °F 15.1 °F 58% 30.01 in 10.0 mi WSW 19.6 mph 28.8 mph N/A   Overcast
6:53 PM 28.0 °F 17.5 °F 14.0 °F 56% 30.02 in 10.0 mi SW 12.7 mph - N/A   Mostly Cloudy
7:53 PM 28.0 °F 18.1 °F 14.0 °F 56% 30.06 in 10.0 mi WSW 11.5 mph - N/A   Overcast
8:53 PM 28.0 °F 18.1 °F 14.0 °F 56% 30.09 in 10.0 mi WSW 11.5 mph - N/A   Overcast
9:53 PM 28.0 °F 18.1 °F 16.0 °F 61% 30.10 in 10.0 mi WSW 11.5 mph - N/A   Overcast
10:53 PM 28.9 °F 19.2 °F 18.0 °F 64% 30.10 in 10.0 mi WSW 11.5 mph - N/A   Overcast
11:51 PM 30.2 °F 20.2 °F 19.4 °F 64% 30.06 in 10.0 mi WSW 12.7 mph - N/A   Overcast
11:53 PM 30.0 °F 20.5 °F 19.9 °F 66% 30.10 in 10.0 mi WSW 11.5 mph - N/A   Overcast